Location: Newark
(48.8604°N, 2.3376°E)
Time: 22:05:38
(UTC+00:00)

XW-2C - Pass Details

Date: 08 December 2021
Orbit: 503 x 523 km, 97.5° (Epoch: 19 January)

Event Time Altitude Azimuth Distance (km) Brightness Sun altitude
Rises 18:08:25 0° 212° (SSW) 2,622 ? -21.1°
Reaches altitude 10° 18:11:24 10° 239° (WSW) 1,748 ? -21.6°
Maximum altitude 18:13:22 14° 271° (W) 1,532 ? -21.9°
Drops below altitude 10° 18:15:22 10° 302° (WNW) 1,763 ? -22.2°
Sets 18:18:25 0° 329° (NNW) 2,662 ? -22.7°
